Regional Weather Roundup
Issued by NWS

Home | Current Version | Previous Version | Text Only | Print | Product List | Glossary On
Versions: 1 2 3 4 5 6 7 8 9 10 11 12 13 14 15 16 17 18 19 20 21 22 23 24 25 26 27 28 29 30 31 32 33 34 35 36 37 38 39 40 41 42 43 44 45 46 47 48 49 50
000
ASUS45 KABQ 281410
RWRNM
NEW MEXICO REGIONAL WEATHER ROUNDUP
NATIONAL WEATHER SERVICE ALBUQUERQUE NM
800 AM MDT SAT MAY 28 2016

NOTE: "FAIR" MEANS FEW OR NO CLOUDS BELOW 12,000 FEET AGL WITH NO
       SIGNIFICANT WEATHER OR OBSTRUCTIONS TO VISION.

      THIS PRODUCT IS RELEASED AS TWO VERSIONS.  ONE VERSION NEAR
      THE TOP OF THE HOUR CONTAINING PRELIMINARY DATA FROM ALBUQUERQUE
      AND OTHER STATIONS.  A FINAL VERSION WITH ADDITIONAL DATA IS
      ISSUED ABOUT 10 MINUTES AFTER THE HOUR.

NMZ501-503-504-510>518-281500-
NORTHWEST PLATEAU/NORTHCENTRAL MOUNTAINS

CITY           SKY/WX    TMP DP  RH WIND       PRES   REMARKS
FARMINGTON     FAIR      51  34  52 E7        30.09R
LOS ALAMOS     FAIR      50  32  49 NE5       30.17S
SANTA FE       FAIR      52  32  46 N9        30.13R
TAOS           FAIR      43  32  65 N3        30.19R
ANGEL FIRE     FAIR      34  31  88 NE6       30.23R WCI  29

$$
NMZ402-403-502-505>509-281500-
WESTCENTRAL MOUNTAINS/SOUTHWEST MOUNTAINS

CITY           SKY/WX    TMP DP  RH WIND       PRES   REMARKS
GALLUP         FAIR      50  27  40 E3        30.13R
GRANTS         FAIR      46  22  39 NW6       30.16R
SILVER CITY      N/A     63  19  19 N3        30.09R

$$
NMZ407-409-411-412-281500-
SOUTHERN DESERTS

CITY           SKY/WX    TMP DP  RH WIND       PRES   REMARKS
LORDSBURG      FAIR      57  18  21 SE6       30.02R
DEMING         FAIR      53  18  25 CALM      30.03R
LAS CRUCES     FAIR      63  20  19 E3        30.04R
HOLLOMAN AFB   FAIR      63  19  18 SE9       30.01R
ALAMOGORDO     FAIR      63  21  20 CALM      30.03R
T OR C         FAIR      67  25  20 N3        30.04R

$$
NMZ519>523-281500-
CENTRAL VALLEYS/CENTRAL HIGHLANDS

CITY           SKY/WX    TMP DP  RH WIND       PRES   REMARKS
ALBUQUERQUE    FAIR      56  31  38 N6        30.09R
DOUBLE EAGLE   SUNNY     57  32  38 NE12      30.12R
MORIARTY ARPT  FAIR      49  28  44 CALM      30.14R
CLINES CORNERS FAIR      56  32  40 S8        30.14R
BELEN          FAIR      57  28  33 N7        30.09R
SOCORRO        FAIR      62  24  24 NW7       30.06R

$$
NMZ524>526-539-540-281500-
SOUTHCENTRAL MOUNTAINS

CITY           SKY/WX    TMP DP  RH WIND       PRES   REMARKS
RUIDOSO          N/A     57  25  28 E3        30.17R

$$
NMZ527>531-281500-
NORTHEAST HIGHLANDS/NORTHEAST PLAINS

CITY           SKY/WX    TMP DP  RH WIND       PRES   REMARKS
LAS VEGAS      FAIR      53  33  46 SW8       30.15R
RATON          FAIR      48  37  65 E5        30.11R
CLAYTON        FAIR      62  40  44 W7        30.06R

$$
NMZ532>537-281500-
EASTCENTRAL PLAINS

CITY           SKY/WX    TMP DP  RH WIND       PRES   REMARKS
TUCUMCARI      FAIR      62  43  49 CALM      30.05R
CANNON AFB     FAIR      62  41  44 NE12      30.05R
CLOVIS AIRPORT FAIR      61  43  51 NE10      30.06R

$$
NMZ028-029-538-281500-
SOUTHEAST PLAINS

CITY           SKY/WX    TMP DP  RH WIND       PRES   REMARKS
ROSWELL        FAIR      63  39  41 N8        30.03R
ARTESIA        FAIR      63  39  42 N8        30.03R
CARLSBAD       FAIR      66  34  30 NW18      30.00R
HOBBS          SUNNY     63  41  45 NE12      30.03R


$$




USA.gov is the U.S. government's official web portal to all federal, state and local government web resources and services.